Regional Weather Roundup
Issued by NWS

Home | Current Version | Previous Version | Graphics & Text | Print | Product List | Glossary On
Versions: 1 2 3 4 5 6 7 8 9 10 11 12 13 14 15 16 17 18 19 20 21 22 23 24 25 26 27 28 29 30 31 32 33 34 35 36 37 38 39 40 41 42 43 44 45 46 47 48 49 50
000
ASUS45 KABQ 011901
RWRNM
WEATHER ROUNDUP FOR NEW MEXICO
NATIONAL WEATHER SERVICE ALBUQUERQUE NM
100 PM MDT WED APR 01 2015

NOTE: "FAIR" MEANS FEW OR NO CLOUDS BELOW 12,000 FEET AGL WITH NO
       SIGNIFICANT WEATHER OR OBSTRUCTIONS TO VISION.

      THIS PRODUCT IS RELEASED AS TWO VERSIONS.  ONE VERSION NEAR
      THE TOP OF THE HOUR CONTAINING PRELIMINARY DATA FROM ALBUQUERQUE
      AND OTHER STATIONS.  A FINAL VERSION WITH ADDITIONAL DATA IS
      ISSUED ABOUT 10 MINUTES AFTER THE HOUR.

NMZ501-503-504-510>518-012000-
NORTHWEST PLATEAU/NORTHCENTRAL MOUNTAINS

CITY           SKY/WX    TMP DP  RH WIND       PRES   REMARKS
FARMINGTON     SUNNY     70  15  12 W17G29    29.92F
SANTA FE       SUNNY     68  22  17 W14G23    29.96F
TAOS           CLOUDY    61  21  21 W14G22    29.98F
ANGEL FIRE     FAIR      55  26  33 W23G33    30.02F

$$
NMZ402-403-502-505>509-012000-
WESTCENTRAL MOUNTAINS/SOUTHWEST MOUNTAINS

CITY           SKY/WX    TMP DP  RH WIND       PRES   REMARKS
GALLUP         MOSUNNY   66  25  21 W25G35    30.03F

$$
NMZ407-409-411-412-012000-
SOUTHERN DESERTS

CITY           SKY/WX    TMP DP  RH WIND       PRES   REMARKS
DEMING         MOSUNNY   77  35  21 NW18G26   30.00F
HOLLOMAN AFB   MOSUNNY   77  31  19 VRB6      29.95F
ALAMOGORDO     MOSUNNY   75  32  20 NW9       29.97F
T OR C         SUNNY     74  30  19 SW9G21    29.97F

$$
NMZ519>523-012000-
CENTRAL VALLEYS/CENTRAL HIGHLANDS

CITY           SKY/WX    TMP DP  RH WIND       PRES   REMARKS
ALBUQUERQUE    MOSUNNY   72  25  17 W22G30    29.96F
DOUBLE EAGLE   MOSUNNY   72  25  17 W20G25    29.98F
MORIARTY ARPT  FAIR      70  19  14 W21G30    29.99F
CLINES CORNERS SUNNY     66  24  20 W24G33    29.98F
BELEN          FAIR      76  23  14 W20G28    29.97F
SOCORRO        NOT AVBL

$$
NMZ524>526-539-540-012000-
SOUTHCENTRAL MOUNTAINS

CITY           SKY/WX    TMP DP  RH WIND       PRES   REMARKS
RUIDOSO        NOT AVBL

$$
NMZ527>531-012000-
NORTHEAST HIGHLANDS/NORTHEAST PLAINS

CITY           SKY/WX    TMP DP  RH WIND       PRES   REMARKS
LAS VEGAS      SUNNY     67  19  16 W26G36    29.95F
RATON          MOSUNNY   69  22  16 SW17G24   29.87F
CLAYTON        PTSUNNY   79  26  14 W20G25    29.80F

$$
NMZ532>537-012000-
EASTCENTRAL PLAINS

CITY           SKY/WX    TMP DP  RH WIND       PRES   REMARKS
TUCUMCARI      SUNNY     84  25  11 W23G32    29.79F
CANNON AFB     SUNNY     80  31  16 W20       29.85F
CLOVIS AIRPORT MOSUNNY   81  30  16 W21       29.84F

$$
NMZ028-029-538-012000-
SOUTHEAST PLAINS

CITY           SKY/WX    TMP DP  RH WIND       PRES   REMARKS
ROSWELL        SUNNY     83  33  16 CALM      29.86F
ARTESIA        SUNNY     82  39  21 S9G16     29.88F
CARLSBAD       SUNNY     83  33  16 CALM      29.86F
HOBBS          SUNNY     81  34  18 NW12      29.89F


$$



USA.gov is the U.S. government's official web portal to all federal, state and local government web resources and services.